国际通讯卫星 35E星 (INTELSAT 35E (IS-35E))

导读

INTELSAT 35E是国际通信卫星组织(ITSO)下属国际通信卫星公司的一颗地球同步通信卫星,于2017年7月5日发射升空。作为Intelsat卫星系列的成员,它继承了该系列可靠的通信服务定位,配备C频段、Ku频段转发器,主要为跨区域提供语音传输、广播电视转播、宽带互联网接入等公共电信服务,依托全球卫星网络支撑,覆盖指定区域,服务各国电信运营商与政府客户,延续了ITSO保障全球互联互通的宗旨,设计具备较长使用寿命,稳定支撑全球跨区域通信需求。

基本信息
目录编号:
42818
目录名称:
INTELSAT 35E
国际标识:
2017-041A
轨道中心:
EARTH
卫星名称:
国际通讯卫星 35E星
卫星全名:
国际通讯卫星 35E星 (INTELSAT 35E (IS-35E))
卫星状态:
在轨 (已飞行3267 天)
发射日期:
2017-07-05 UTC
国别 :
(ITSO)
星等 :
--
轨道信息
数据来源 国际轨道数据 AOE轨道数据
星历时间 2026-06-15T00:21:54+0800
13小时前
查看轨道信息
2026-06-15T08:00:00+0800
5小时前
查看轨道信息
半长轴 42165.766km 42165.401km
偏心率 0.0001533 0.0001643
轨道倾角 0.026° 0.030°
近地点辐角 69.532° 61.699°
升交点赤经 11.672° 20.298°
平近点角 32.756° 146.797°
近地点 35781.164km 35780.336km
远地点 35794.094km 35794.192km
周期 1436.150分钟 1436.131分钟
每日圈数 1.002681 1.002694
详细信息
卫星平台:
SSL 1300
平衡模式:
三轴稳定
覆盖范围:
全球
运营商:
国际卫星通信公司
运营商所在国:
美国
制造商(研发单位):
波音公司
制造商所在国:
美国
使用方式:
暂无
卫星简介
从1965年4月至1984年3月,国际通信卫星组织发射了5代、6种不同性能的卫星共计35颗,除6颗卫星因运载火箭和远地点发动机故障而发射失败外,其余29颗卫星均被送到了预定的静止轨道位置。1984年8月前后,国际通信卫星组织利用部署在大西洋、太平洋、印度洋上空的15颗国际通信卫星,为遍布世界各地170多个国家或地区提供电话、电传、电报、电视和数据传输等电信业务;该卫星仍在工作。
2D轨道图
3D轨道图
轨道高度分析图
轨道倾角分析图
轨道综合分析图
查看轨道综合分析图